Theta_e
330 334 335 335 336 336 337 334 331 331 332 334 334 334 333 331 329 334 332 333 333 327 322 321 321 319 322 325 325 324 324 325 337 335 330 332 331 330 331 336 337 337 338
325 331 333 334 335 334 333 333 332 334 334 334 333 333 332 330 325 325 326 327 324 320 320 321 322 322 319 318 323 324 323 324 329 331 333 331 331 332 331 332 333 335 337
324 328 332 333 333 333 333 332 333 333 333 332 332 332 331 327 324 324 325 322 320 320 319 320 321 318 320 321 319 319 320 322 325 325 328 329 329 329 329 330 330 330 328
323 324 331 332 332 333 333 333 332 331 331 330 330 330 328 325 325 327 324 320 318 319 319 320 318 319 320 320 319 320 322 322 324 324 327 328 332 330 326 323 325 326 325
322 322 327 332 332 332 332 331 331 331 330 328 327 327 326 325 325 323 322 322 320 318 319 320 318 318 318 317 315 318 320 321 321 322 323 324 329 331 328 324 321 321 321
319 321 322 329 331 332 332 332 332 331 328 327 327 332 328 327 324 323 324 322 319 316 317 317 317 315 313 312 312 312 313 317 320 321 322 322 323 325 325 329 324 321 320
317 320 320 324 328 329 330 331 331 331 329 328 332 329 329 326 325 324 325 322 318 314 315 315 315 313 312 309 307 307 308 311 312 313 315 316 318 319 321 317 326 327 317
316 317 319 321 325 327 328 329 330 330 329 328 331 331 332 330 328 326 325 318 316 314 313 314 313 311 306 305 304 304 304 304 305 306 306 308 310 311 311 310 313 317 317
316 317 319 321 322 325 327 329 330 330 330 329 327 327 328 330 329 329 324 317 313 312 312 312 310 305 304 304 304 305 305 305 305 305 305 305 305 305 305 306 308 309 311
316 316 317 319 320 320 321 324 329 330 330 330 328 325 328 330 328 326 324 318 312 311 310 309 306 304 304 305 306 307 307 307 307 307 307 307 307 306 305 305 305 305 306
317 316 316 318 319 321 321 322 321 324 327 330 329 328 328 330 328 326 327 320 315 311 309 306 305 304 304 306 307 307 307 307 307 307 307 307 307 307 306 306 306 305 305
317 317 316 316 317 320 321 322 321 324 331 332 330 329 328 329 328 325 329 325 320 312 309 305 305 304 305 306 306 306 307 307 307 307 307 307 307 307 307 306 306 305 305
316 316 316 316 317 318 318 319 322 323 323 325 326 328 329 336 334 328 330 328 323 315 310 306 305 304 305 306 306 307 307 307 307 307 307 307 306 306 306 306 306 306 305
316 316 316 316 316 317 319 319 319 320 321 323 321 322 327 332 331 329 327 329 327 321 312 307 305 305 305 306 306 307 307 308 308 308 308 307 307 306 306 305 305 305 305
315 316 315 317 316 316 318 319 320 320 321 321 321 321 323 328 333 332 327 322 324 324 317 310 305 305 305 306 307 307 308 308 308 308 308 308 307 307 306 305 305 305 305
314 315 315 315 316 316 317 318 319 321 321 323 325 325 325 331 333 331 330 323 320 320 321 315 307 304 304 304 305 306 306 307 307 307 307 307 307 307 307 306 305 305 312
313 314 315 315 315 315 315 318 321 323 323 325 327 328 328 329 327 329 328 330 325 325 323 320 312 305 304 303 304 305 305 305 306 307 307 307 307 307 306 306 305 305 306
312 313 313 314 315 315 315 320 324 325 325 326 328 330 330 329 329 327 326 328 328 328 326 323 318 308 305 304 303 303 304 304 305 305 306 306 306 306 306 305 304 305 307
310 311 311 312 314 315 316 322 326 327 326 326 329 329 328 327 326 326 326 326 326 326 326 324 320 313 307 305 304 303 302 303 303 304 305 305 305 305 305 305 304 304 304
307 308 309 311 313 315 317 321 324 324 324 325 326 325 325 325 325 325 325 326 325 324 324 323 320 316 312 308 306 303 301 301 302 303 303 304 304 304 304 304 303 303 303
306 307 308 309 311 312 314 316 318 321 322 323 322 323 323 322 323 322 323 322 322 322 321 320 320 317 315 311 308 303 301 300 301 302 302 302 303 303 303 303 302 302 302
305 306 307 307 308 309 309 311 313 314 317 320 320 320 319 319 319 319 319 319 318 318 318 317 316 316 314 312 308 304 300 300 300 300 301 302 303 303 303 303 303 302 302
306 305 305 305 306 306 307 308 311 313 314 316 317 317 316 316 316 316 316 316 315 316 315 314 313 313 312 311 309 304 299 299 300 301 301 301 302 302 302 302 302 302 302
303 304 305 305 306 305 305 305 305 307 308 308 308 310 312 312 312 313 312 312 312 312 312 311 310 309 309 308 307 305 302 299 299 300 301 301 301 301 302 302 302 302 302
303 304 304 304 305 305 305 304 304 303 302 303 304 305 305 305 305 305 305 308 308 308 308 307 307 307 306 306 305 304 303 301 299 298 299 300 300 301 301 301 302 301 301
301 302 302 302 302 303 303 304 304 303 302 302 301 301 301 301 301 301 302 302 302 302 302 304 304 304 304 303 304 303 301 300 299 298 298 298 298 299 300 301 301 302 301
Wind_Speed
13 19 20 21 20 19 18 17 15 12 10 8 6 6 6 6 7 9 8 7 5 2 1 1 2 3 5 6 6 6 7 9 11 6 6 6 6 6 8 9 9 10 9
11 18 21 20 20 18 16 16 14 12 10 8 7 7 7 7 8 7 7 6 4 2 1 1 1 3 3 5 6 6 6 8 8 6 6 5 4 4 5 5 5 7 8
8 15 21 21 20 18 15 13 13 12 11 9 9 8 8 8 7 7 6 5 4 4 2 1 1 2 3 3 4 5 6 7 7 6 4 4 4 3 3 3 3 3 4
5 12 21 22 20 19 17 15 14 12 11 10 10 10 10 9 8 8 6 5 3 5 4 3 3 2 2 2 3 4 5 6 6 4 4 3 2 1 2 3 3 3 2
5 8 17 22 22 21 19 17 15 14 12 12 11 11 11 9 8 7 7 7 7 5 5 5 4 4 4 4 4 5 6 7 7 6 5 4 3 1 1 3 5 4 4
6 8 14 20 22 22 21 19 17 15 14 13 12 11 11 11 9 9 8 9 10 7 7 7 6 5 6 6 6 8 9 10 9 9 8 8 8 6 3 2 2 4 5
5 8 12 17 21 21 21 20 19 17 16 14 13 12 12 11 10 9 9 11 11 8 8 8 7 6 6 7 7 8 9 11 10 11 10 10 10 9 8 6 5 4 2
5 7 11 14 19 21 21 21 20 19 18 16 15 13 15 14 12 11 11 11 11 10 9 8 7 7 7 6 6 6 7 9 8 9 9 9 10 10 9 9 7 8 8
7 9 11 14 16 19 22 22 22 21 20 19 18 16 17 17 15 13 12 10 10 10 10 8 7 7 6 7 6 6 7 7 6 7 7 8 8 8 9 9 8 8 9
10 11 12 14 17 19 21 23 24 24 23 22 20 19 20 19 18 15 14 11 11 11 11 9 8 8 8 7 7 8 8 8 7 7 7 8 9 8 8 9 9 10 10
13 13 15 16 17 19 21 23 24 25 25 24 23 21 22 22 22 18 15 14 12 12 11 10 9 9 10 10 10 9 9 9 8 8 8 9 10 9 9 9 10 10 11
19 15 15 16 18 19 21 23 25 26 25 24 23 23 24 24 24 20 18 17 15 14 13 12 11 12 12 11 11 10 10 9 8 8 9 9 10 10 10 10 10 11 11
17 17 15 14 15 17 20 22 25 28 27 26 25 24 25 26 25 24 23 21 19 17 16 15 14 14 14 13 12 12 11 10 8 9 9 9 10 10 11 11 11 11 11
18 17 17 16 14 15 17 19 22 26 29 29 28 27 28 28 28 27 27 25 22 20 18 18 16 17 16 16 15 14 13 12 10 10 9 10 10 11 11 11 11 11 12
17 19 17 21 18 16 17 18 19 24 26 26 27 29 30 29 30 28 28 27 25 23 21 20 19 20 19 19 18 17 16 14 13 12 11 11 11 12 12 12 12 12 11
13 18 19 17 17 16 18 18 19 19 22 23 23 23 28 28 30 30 29 29 22 22 22 22 22 21 21 22 21 20 19 17 16 15 14 13 13 13 12 13 13 12 8
10 11 14 19 18 16 17 18 19 18 18 21 22 21 23 26 26 30 31 34 26 23 23 24 25 25 25 25 25 23 22 21 20 18 17 15 14 13 13 13 14 13 14
8 10 12 13 16 15 12 16 18 18 18 19 21 22 22 23 26 28 30 33 30 26 26 26 27 28 27 27 27 26 26 24 23 21 20 19 17 15 14 14 14 14 15
9 9 10 11 12 13 11 13 17 18 17 18 19 19 21 22 23 25 26 27 28 27 27 27 27 28 28 28 28 29 29 28 26 25 24 22 20 18 17 17 15 15 15
5 2 0 1 4 8 9 11 12 13 14 14 15 16 18 20 21 23 24 25 27 27 27 28 28 28 29 28 29 30 31 30 29 28 28 26 23 22 20 19 18 18 17
15 11 8 2 3 4 5 7 8 8 9 10 11 13 15 16 18 20 21 23 24 29 27 27 29 30 31 29 30 32 34 33 33 33 32 30 29 26 25 22 21 21 21
23 22 18 16 11 7 3 2 1 4 7 9 9 10 12 14 13 15 17 20 22 26 27 28 28 30 31 31 32 32 30 34 38 38 35 34 33 31 29 27 25 24 23
27 27 25 22 19 17 12 5 1 3 3 5 8 6 9 11 11 11 13 16 19 23 25 27 28 29 31 32 33 29 11 18 23 28 37 39 38 36 33 31 29 27 26
26 24 24 24 24 22 19 15 12 8 6 4 5 5 10 14 14 16 14 15 17 21 23 24 25 28 31 33 33 36 39 32 13 11 18 25 35 37 36 34 32 30 28
20 21 21 20 20 21 21 20 18 15 12 9 6 6 8 10 12 14 15 19 21 20 22 24 25 26 29 33 34 36 37 40 43 39 33 29 28 26 29 33 34 33 31
19 19 20 19 19 18 17 17 17 16 16 14 13 13 12 11 9 10 10 12 14 17 21 24 23 25 28 31 33 35 38 36 36 40 44 47 45 41 37 35 34 33 33
Wind_Direction
166 179 186 186 189 190 188 186 181 179 177 175 169 163 159 156 154 148 154 154 145 136 66 43 74 98 153 153 146 139 135 134 131 133 110 107 106 101 94 94 82 83 75
175 176 190 192 194 200 203 187 187 187 188 190 189 183 177 178 177 176 184 192 211 239 249 313 36 96 140 155 152 145 140 136 141 144 127 131 134 129 114 109 108 102 96
172 181 189 195 200 205 206 198 194 197 201 205 202 199 197 190 192 198 211 227 234 227 230 237 140 130 138 145 141 151 157 157 166 168 154 131 116 152 146 140 132 123 118
180 191 191 199 205 209 211 212 213 217 219 219 212 204 203 203 205 221 243 257 235 223 220 199 199 180 176 155 159 166 174 187 197 178 161 127 149 153 176 187 177 171 153
205 196 202 204 208 211 216 222 226 222 222 219 217 218 216 215 223 238 246 252 258 246 232 229 226 217 212 218 208 202 203 211 218 220 221 209 174 172 270 220 197 191 199
234 217 206 209 213 214 217 221 225 227 227 224 226 218 231 238 243 242 245 246 259 240 239 241 245 247 244 233 225 219 220 226 221 228 234 239 236 246 246 299 180 199 207
239 228 214 213 218 221 221 223 226 227 227 226 223 236 238 241 242 246 252 267 270 266 253 250 254 251 246 241 234 229 226 230 231 234 237 240 245 249 251 242 187 191 226
266 241 228 222 223 227 229 228 228 229 231 231 230 231 242 248 249 250 255 275 267 265 259 253 253 255 252 237 223 221 222 231 233 240 242 244 248 256 260 261 248 238 252
273 256 242 234 229 230 232 233 233 233 233 234 233 236 242 249 252 254 254 269 261 257 254 251 249 245 226 218 221 223 229 233 236 245 249 252 256 260 260 257 254 256 256
289 273 255 245 237 235 233 233 234 235 235 236 237 237 239 245 251 254 255 267 269 261 256 248 244 231 224 225 228 233 239 246 251 253 251 256 262 260 259 259 259 257 258
291 292 270 251 247 243 240 239 239 235 234 232 237 238 238 243 251 254 256 262 272 262 257 247 238 228 228 231 235 238 243 251 255 258 261 266 267 265 260 260 259 257 258
290 296 293 269 256 251 247 242 243 233 232 234 230 233 238 243 251 255 256 261 267 263 259 248 239 231 233 237 240 244 249 257 262 267 271 272 271 273 271 267 265 262 261
293 282 280 282 265 258 254 249 245 240 237 234 235 231 233 235 247 253 253 257 262 264 259 251 243 238 237 240 243 248 253 259 262 267 270 273 274 276 277 275 272 271 267
279 285 278 273 270 261 258 257 250 244 242 243 243 241 236 236 240 245 252 257 261 264 260 254 247 243 244 246 247 249 250 254 257 265 271 276 278 281 281 279 278 274 269
277 272 274 256 269 274 263 261 258 250 245 246 245 243 243 239 240 245 253 255 258 261 260 255 247 244 244 245 248 251 253 256 259 262 267 270 274 276 277 281 281 278 273
283 262 258 253 259 272 271 268 266 264 257 250 246 245 248 242 244 246 250 258 258 261 263 262 256 249 248 246 247 248 250 252 254 259 263 267 270 271 272 274 276 277 264
293 292 269 249 239 250 269 268 267 270 270 262 257 252 250 254 251 252 254 258 266 269 270 264 258 251 246 245 246 247 248 248 250 251 254 258 261 265 268 267 264 258 256
282 275 272 252 235 231 245 263 263 267 273 271 264 265 263 259 255 253 254 254 259 265 271 267 261 256 251 248 248 248 248 248 250 252 255 256 259 262 263 261 256 250 260
294 279 269 265 242 231 225 239 247 253 263 268 265 259 258 259 258 260 257 257 258 262 265 270 264 258 254 253 253 249 247 247 247 250 254 256 257 259 259 260 261 253 254
25 22 220 192 204 222 212 223 240 250 257 259 263 266 264 264 265 263 262 262 260 261 267 268 264 260 258 259 258 255 251 248 246 248 251 253 255 255 255 254 254 254 255
71 75 78 117 127 174 193 205 221 240 248 246 254 256 265 269 268 271 272 269 268 268 265 274 270 264 260 257 257 255 253 251 249 249 249 252 253 253 253 252 252 252 254
63 61 59 56 54 52 49 62 135 228 230 223 232 249 263 266 271 277 279 278 279 276 274 272 271 270 266 260 254 254 257 258 254 250 250 251 253 253 252 254 254 254 253
62 56 54 52 51 50 46 30 339 255 237 230 237 239 257 262 266 267 275 283 282 279 277 276 274 273 274 268 261 249 240 245 261 258 252 251 250 251 252 251 253 254 253
63 60 56 51 50 49 46 44 43 40 26 10 347 287 266 267 270 267 262 255 269 274 276 279 277 273 273 272 268 259 251 255 277 280 267 258 252 251 252 252 252 253 254
57 52 50 46 45 41 37 40 39 36 32 14 339 314 307 297 290 284 272 264 266 272 278 278 275 271 270 272 270 270 268 261 258 263 276 271 271 267 260 258 256 253 253
52 42 37 32 32 30 24 25 24 22 22 18 24 21 13 354 335 318 304 294 290 282 278 272 275 272 268 268 270 270 267 264 263 264 266 270 274 273 273 268 261 258 254